| time (UTC) | temp C | wind direction | speed KPH | gust KPH | rain 1hr cm | rain 24hr cm | rain mn cm | humidity % | barometer mb |
| 20260505193050 | 28 | 205 | 11.3 | 27.4 | 0.00 | 0.00 | 0.00 | 70 | 1007.5 |
| 20260505191605 | 28 | 36 | 6.4 | 29.0 | 0.00 | 0.00 | 0.00 | 73 | 1007.6 |
| 20260505190048 | 28 | 207 | 9.7 | 30.6 | 0.00 | 0.00 | 0.00 | 72 | 1007.8 |
| 20260505184549 | 27 | 207 | 6.4 | 29.0 | 0.00 | 0.00 | 0.00 | 73 | 1008.1 |
| 20260505183054 | 27 | 194 | 11.3 | 27.4 | 0.00 | 0.00 | 0.00 | 76 | 1008.1 |
| 20260505181551 | 26 | 196 | 8.0 | 27.4 | 0.00 | 0.00 | 0.00 | 78 | 1008.3 |
| 20260505180055 | 25 | 214 | 11.3 | 27.4 | 0.00 | 0.00 | 0.00 | 79 | 1008.6 |
| 20260505174548 | 25 | 215 | 6.4 | 24.1 | 0.00 | 0.00 | 0.00 | 81 | 1008.7 |
| 20260505173055 | 25 | 214 | 4.8 | 25.7 | 0.00 | 0.00 | 0.00 | 80 | 1008.7 |
| 20260505171610 | 25 | 194 | 8.0 | 33.8 | 0.00 | 0.00 | 0.00 | 81 | 1008.5 |
| 20260505170051 | 25 | 194 | 8.0 | 27.4 | 0.00 | 0.00 | 0.00 | 82 | 1008.6 |
| 20260505164548 | 24 | 148 | 8.0 | 24.1 | 0.00 | 0.00 | 0.00 | 83 | 1008.8 |
| 20260505163048 | 23 | 186 | 9.7 | 30.6 | 0.00 | 0.00 | 0.00 | 84 | 1008.9 |
| 20260505161551 | 23 | 131 | 11.3 | 35.4 | 0.00 | 0.00 | 0.00 | 84 | 1008.7 |
| 20260505153053 | 23 | 171 | 9.7 | 20.9 | 0.00 | 0.00 | 0.00 | 83 | 1008.7 |
| 20260505151548 | 23 | 148 | 8.0 | 20.9 | 0.00 | 0.00 | 0.00 | 84 | 1008.6 |
| 20260505150111 | 23 | 223 | 8.0 | 30.6 | 0.00 | 0.00 | 0.00 | 85 | 1008.7 |
| 20260505124558 | 21 | 180 | 6.4 | 19.3 | 0.00 | 0.00 | 0.00 | 86 | 1008.1 |
| 20260505123100 | 21 | 196 | 4.8 | 16.1 | 0.00 | 0.00 | 0.00 | 86 | 1007.9 |
| 20260505121619 | 21 | 105 | 4.8 | 20.9 | 0.00 | 0.00 | 0.00 | 86 | 1007.9 |
| 20260505120050 | 21 | 167 | 4.8 | 19.3 | 0.00 | 0.00 | 0.00 | 86 | 1008.0 |
| 20260505114551 | 21 | 211 | 4.8 | 17.7 | 0.00 | 0.00 | 0.00 | 87 | 1007.7 |
| 20260505113054 | 21 | 130 | 6.4 | 24.1 | 0.00 | 0.00 | 0.00 | 86 | 1007.6 |
| 20260505111554 | 21 | 144 | 9.7 | 24.1 | 0.00 | 0.00 | 0.00 | 86 | 1007.3 |
| 20260505101547 | 21 | 125 | 9.7 | 27.4 | 0.00 | 0.00 | 0.00 | 86 | 1007.5 |
| 20260505100123 | 21 | 153 | 6.4 | 29.0 | 0.00 | 0.00 | 0.00 | 86 | 1007.3 |
| 20260505094548 | 21 | 163 | 8.0 | 33.8 | 0.00 | 0.00 | 0.00 | 86 | 1007.2 |
| 20260505093044 | 21 | 190 | 4.8 | 27.4 | 0.00 | 0.00 | 0.00 | 86 | 1007.3 |
| 20260505091612 | 21 | 193 | 6.4 | 24.1 | 0.00 | 0.00 | 0.00 | 86 | 1007.4 |
| 20260505090058 | 21 | 159 | 9.7 | 22.5 | 0.00 | 0.00 | 0.00 | 85 | 1007.7 |
| 20260505084549 | 20 | 207 | 8.0 | 33.8 | 0.00 | 0.00 | 0.00 | 85 | 1007.8 |
| 20260505083052 | 20 | 175 | 6.4 | 22.5 | 0.00 | 0.00 | 0.00 | 85 | 1008.3 |
| 20260505081550 | 20 | 184 | 6.4 | 25.7 | 0.00 | 0.00 | 0.00 | 86 | 1008.4 |
| 20260505080052 | 20 | 213 | 4.8 | 24.1 | 0.00 | 0.00 | 0.00 | 86 | 1008.5 |
| 20260505074550 | 20 | 144 | 4.8 | 20.9 | 0.00 | 0.00 | 0.00 | 85 | 1008.8 |
| 20260505073058 | 20 | 205 | 8.0 | 20.9 | 0.00 | 0.00 | 0.00 | 85 | 1009.0 |
| 20260505071549 | 20 | 186 | 6.4 | 35.4 | 0.00 | 0.00 | 0.00 | 84 | 1009.0 |
| 20260505070044 | 20 | 160 | 6.4 | 20.9 | 0.00 | 0.00 | 0.00 | 84 | 1009.2 |
| 20260505064553 | 20 | 292 | 6.4 | 24.1 | 0.00 | 0.00 | 0.00 | 83 | 1009.2 |
| 20260505063050 | 21 | 80 | 4.8 | 14.5 | 0.00 | 0.00 | 0.00 | 83 | 1009.6 |
| 20260505061548 | 21 | 100 | 6.4 | 27.4 | 0.00 | 0.00 | 0.00 | 82 | 1009.7 |
| 20260505060050 | 21 | 130 | 8.0 | 20.9 | 0.00 | 0.00 | 0.00 | 82 | 1009.7 |
| 20260505054616 | 21 | 192 | 4.8 | 19.3 | 0.00 | 0.00 | 0.00 | 81 | 1009.7 |
| 20260505053052 | 21 | 113 | 8.0 | 24.1 | 0.00 | 0.00 | 0.00 | 81 | 1009.5 |
| 20260505051549 | 21 | 163 | 6.4 | 20.9 | 0.00 | 0.00 | 0.00 | 81 | 1009.6 |
| 20260505041601 | 21 | 160 | 4.8 | 16.1 | 0.00 | 0.00 | 0.00 | 79 | 1009.5 |
| 20260505040052 | 22 | 171 | 6.4 | 22.5 | 0.00 | 0.00 | 0.00 | 79 | 1009.7 |
| 20260505034549 | 22 | 142 | 4.8 | 19.3 | 0.00 | 0.00 | 0.00 | 78 | 1009.5 |
| 20260505033047 | 22 | 158 | 4.8 | 17.7 | 0.00 | 0.00 | 0.00 | 77 | 1009.6 |
| 20260505031548 | 22 | 178 | 4.8 | 14.5 | 0.00 | 0.00 | 0.00 | 77 | 1009.6 |
| 20260505024551 | 22 | 162 | 4.8 | 17.7 | 0.00 | 0.00 | 0.00 | 75 | 1009.2 |
| 20260505023050 | 22 | 190 | 3.2 | 14.5 | 0.00 | 0.00 | 0.00 | 74 | 1009.4 |
| 20260505021553 | 22 | 140 | 4.8 | 14.5 | 0.00 | 0.00 | 0.00 | 74 | 1009.2 |
| 20260505020056 | 22 | 164 | 3.2 | 12.9 | 0.00 | 0.00 | 0.00 | 73 | 1009.2 |
| 20260505014551 | 22 | 144 | 1.6 | 11.3 | 0.00 | 0.00 | 0.00 | 73 | 1009.3 |
| 20260505013050 | 23 | 131 | 3.2 | 12.9 | 0.00 | 0.00 | 0.00 | 72 | 1009.0 |
| 20260505011550 | 23 | 141 | 3.2 | 11.3 | 0.00 | 0.00 | 0.00 | 71 | 1009.1 |
| 20260505010106 | 23 | 163 | 4.8 | 12.9 | 0.00 | 0.00 | 0.00 | 70 | 1008.9 |
| 20260505004551 | 24 | 128 | 3.2 | 12.9 | 0.00 | 0.00 | 0.00 | 69 | 1008.9 |
| 20260505003050 | 24 | 115 | 3.2 | 11.3 | 0.00 | 0.00 | 0.00 | 68 | 1009.0 |
| 20260505001546 | 25 | 147 | 4.8 | 17.7 | 0.00 | 0.00 | 0.00 | 66 | 1008.9 |
| 20260505000059 | 25 | 195 | 4.8 | 17.7 | 0.00 | 0.00 | 0.00 | 65 | 1009.3 |
| 20260504234552 | 26 | 202 | 6.4 | 25.7 | 0.00 | 0.00 | 0.00 | 63 | 1009.6 |
| 20260504233052 | 26 | 122 | 8.0 | 20.9 | 0.00 | 0.00 | 0.00 | 62 | 1009.5 |
| 20260504231552 | 26 | 162 | 6.4 | 24.1 | 0.00 | 0.00 | 0.00 | 61 | 1009.8 |
| 20260504230112 | 26 | 156 | 8.0 | 19.3 | 0.00 | 0.00 | 0.00 | 61 | 1009.7 |
| 20260504224558 | 26 | 118 | 6.4 | 22.5 | 0.00 | 0.00 | 0.00 | 61 | 1009.8 |
| 20260504223051 | 27 | 142 | 6.4 | 24.1 | 0.00 | 0.00 | 0.00 | 57 | 1010.1 |
| 20260504221550 | 27 | 205 | 6.4 | 29.0 | 0.00 | 0.00 | 0.00 | 56 | 1010.0 |
| 20260504220057 | 27 | 172 | 4.8 | 22.5 | 0.00 | 0.00 | 0.00 | 57 | 1010.1 |
| 20260504214550 | 27 | 186 | 11.3 | 32.2 | 0.00 | 0.00 | 0.00 | 56 | 1010.5 |
| 20260504213100 | 27 | 159 | 8.0 | 38.6 | 0.00 | 0.00 | 0.00 | 55 | 1010.7 |
| 20260504211544 | 27 | 186 | 8.0 | 27.4 | 0.00 | 0.00 | 0.00 | 54 | 1010.9 |
| 20260504210101 | 28 | 137 | 6.4 | 22.5 | 0.00 | 0.00 | 0.00 | 54 | 1011.3 |
| 20260504204550 | 28 | 197 | 11.3 | 30.6 | 0.00 | 0.00 | 0.00 | 52 | 1011.4 |
| 20260504203049 | 28 | 223 | 8.0 | 27.4 | 0.00 | 0.00 | 0.00 | 52 | 1011.8 |
| 20260504201559 | 28 | 273 | 9.7 | 24.1 | 0.00 | 0.00 | 0.00 | 54 | 1011.9 |
| 20260504200101 | 27 | 148 | 11.3 | 29.0 | 0.00 | 0.00 | 0.00 | 54 | 1012.3 |
| 20260504194545 | 27 | 115 | 8.0 | 24.1 | 0.00 | 0.00 | 0.00 | 54 | 1012.7 |